Location: Unspecified
(0.0000°N, 0.0000°E)
Time: 05:59:22
(UTC+00:00)

Tiros 1 - Pass Details

Date: 09 October 2020
Orbit: 630 x 663 km, 48.4° (Epoch: 28 October)

Event Time Altitude Azimuth Distance (km) Brightness Sun altitude
Rises 07:36:56 0° 224° (SW) 2,914 10.2 27.2°
Reaches altitude 10° 07:39:16 10° 227° (SW) 2,003 9.4 27.8°
Maximum altitude 07:43:50 66° 309° (NW) 686 7.5 29.0°
Drops below altitude 10° 07:48:23 10° 31° (NNE) 1,997 10.1 30.1°
Sets 07:50:43 0° 34° (NE) 2,904 10.8 30.7°
